GFSMA_sfc_30mbdewp_000.txt.gz
Dewpoint
69 69 69 69 68 67 66 67 67 67 67 65 65 63 60 61 63 62 62 69 70 71 72 70 70 70 70 69 71 70 69 69 68 68 68 68 69 69 68 67 67 69 69
69 68 67 67 67 67 66 67 68 68 66 64 62 62 61 59 61 63 61 63 69 70 71 71 70 70 70 70 68 70 71 70 70 69 70 71 70 70 68 67 67 68 68
70 68 67 67 67 68 70 68 68 66 64 63 61 60 61 61 60 62 62 60 63 70 70 70 71 71 70 70 70 70 70 71 71 71 71 71 70 70 70 70 70 69 69
70 69 68 67 67 68 67 66 65 63 62 61 59 60 61 60 61 61 61 62 59 59 68 69 70 70 71 69 70 71 71 70 71 71 72 71 71 70 71 71 71 71 71
68 69 67 67 69 68 68 66 64 64 60 58 58 57 60 59 60 58 61 62 63 61 58 68 67 69 69 69 70 70 71 71 70 70 71 72 71 71 70 71 71 72 72
69 69 68 68 68 68 66 65 65 62 62 59 58 56 60 59 60 59 58 57 59 61 63 67 65 66 69 68 69 70 71 71 71 70 70 71 71 72 72 72 72 72 72
70 70 68 68 69 68 65 65 62 60 57 59 57 54 58 60 59 58 56 51 53 55 60 64 65 65 67 69 70 70 70 70 71 71 71 71 71 71 72 72 72 72 72
70 69 69 68 69 63 65 63 62 59 57 59 57 55 50 57 57 56 54 49 50 50 54 59 62 65 65 65 67 69 68 69 70 70 71 71 71 70 70 71 72 72 72
72 71 71 68 68 63 56 62 62 60 55 62 63 57 50 48 51 56 57 51 49 48 51 54 58 58 59 58 59 62 64 65 66 68 69 69 70 71 71 70 71 71 72
71 71 70 69 64 59 60 61 60 60 61 56 56 60 61 60 51 49 52 51 50 48 51 49 51 54 55 52 57 60 62 60 60 61 62 64 66 68 69 70 71 71 71
71 68 70 66 64 61 63 63 61 62 59 58 55 56 58 55 57 52 47 47 50 50 50 49 50 49 51 52 49 56 60 60 59 59 59 59 60 61 64 67 69 70 70
68 69 70 66 63 60 63 62 62 62 61 60 58 59 53 51 50 50 48 48 49 49 50 51 51 48 49 50 51 53 56 59 58 58 58 58 59 59 60 61 64 67 68
62 66 70 66 62 64 62 61 61 60 61 59 60 57 56 55 54 52 51 50 49 50 51 53 53 51 50 50 52 56 55 57 58 58 58 59 58 58 58 58 59 62 65
59 62 69 65 63 62 62 60 59 58 58 58 59 59 57 56 54 54 53 53 51 49 49 53 54 51 51 51 53 58 56 57 56 57 57 58 58 58 58 58 58 58 59
60 65 66 64 61 62 60 59 57 57 57 58 56 58 58 53 52 54 55 56 53 49 46 47 48 51 53 53 54 56 57 57 57 57 57 57 56 57 58 58 59 59 59
66 64 64 61 61 61 60 60 57 57 58 54 53 54 57 54 54 54 54 54 53 52 50 49 48 50 53 55 56 57 57 59 58 58 58 55 55 56 57 58 58 59 59
67 65 64 60 60 60 60 60 59 56 56 56 55 57 59 60 57 52 52 52 52 52 51 50 50 51 54 56 56 57 57 56 55 56 56 56 55 55 56 56 57 57 58
66 65 63 63 61 59 59 60 59 55 55 55 56 58 59 57 57 57 56 55 54 54 54 53 54 53 54 53 55 57 57 54 54 54 55 55 54 54 54 55 56 55 56
65 64 63 64 64 63 60 60 60 59 57 56 57 58 58 57 57 56 56 53 52 52 53 52 53 53 52 52 52 56 55 53 53 54 55 54 54 54 54 54 55 55 55
63 62 63 63 63 62 61 61 60 59 57 56 58 59 59 59 57 57 56 57 57 56 54 52 53 50 51 52 52 52 50 48 47 49 51 51 51 51 54 54 54 54 54
63 59 59 59 61 63 62 61 59 57 57 58 59 60 60 61 59 59 55 54 55 54 52 51 51 49 49 51 51 50 49 50 51 51 49 48 46 49 50 50 50 51 55
60 59 59 60 60 61 59 58 58 58 58 60 60 61 62 61 62 62 60 59 58 56 54 52 51 50 53 56 53 51 51 51 50 51 51 48 51 51 50 49 49 50 51
60 58 59 60 60 61 60 59 59 58 58 60 62 61 60 60 60 60 60 59 57 57 57 57 57 55 56 54 54 56 54 53 51 49 53 52 51 49 49 48 49 53 54
59 61 62 61 60 60 62 61 60 61 61 63 62 61 61 61 61 61 59 57 56 57 57 58 56 55 55 55 54 53 53 53 54 53 54 51 48 46 48 50 52 53 53
61 62 63 62 62 61 62 61 61 58 60 61 63 60 60 61 61 57 56 56 56 56 55 55 53 52 52 52 53 52 50 50 50 51 51 48 47 47 50 51 53 54 54
63 61 62 62 61 63 61 60 59 57 59 60 61 61 60 60 55 54 55 55 54 53 53 52 52 52 52 52 53 53 52 51 49 44 45 47 48 51 50 52 53 54 54

GFSMA_sfc_30mbdewp_006.txt.gz
Dewpoint
70 68 71 69 69 69 69 69 68 68 67 67 63 63 61 61 60 60 67 70 69 69 71 71 70 66 70 71 71 71 70 69 69 70 70 70 70 69 69 69 70 69 69
70 69 69 68 69 69 70 69 69 69 68 67 65 60 60 61 60 62 61 70 70 70 69 70 71 71 70 70 72 71 71 70 70 69 70 71 70 70 70 71 70 68 68
72 71 70 69 70 69 70 70 69 67 66 65 60 59 60 60 61 60 61 61 69 70 70 70 69 71 71 71 71 71 71 71 71 71 70 70 71 71 71 71 70 69 69
71 71 71 69 68 69 69 68 68 66 65 59 59 60 59 60 59 61 61 58 62 65 70 70 70 69 70 71 71 71 70 72 72 71 71 72 72 72 72 72 71 71 71
71 71 71 69 69 69 68 68 66 66 60 60 58 58 59 60 58 58 58 61 62 63 67 69 70 69 69 69 70 71 70 69 70 71 71 71 72 72 72 72 72 72 72
71 70 71 69 70 70 67 67 66 64 62 60 59 56 59 60 60 57 57 58 58 61 65 67 68 69 69 69 70 70 70 71 70 70 70 71 71 71 71 72 72 72 72
71 71 71 69 69 69 66 66 63 61 62 61 58 58 60 60 59 59 54 54 54 57 61 64 67 68 68 70 71 71 70 70 70 70 70 71 71 71 71 71 72 72 72
72 71 71 70 69 68 67 66 63 62 61 61 57 59 59 60 59 59 55 52 52 55 58 60 64 65 68 69 68 67 67 68 69 70 70 70 71 71 71 71 72 72 72
72 69 71 71 70 66 67 66 64 61 60 64 60 59 58 58 59 60 57 54 55 54 55 59 58 59 58 66 66 63 61 61 63 64 66 67 67 68 69 70 71 71 72
71 71 72 71 70 66 67 65 64 62 63 61 63 59 59 58 57 57 60 56 54 54 53 52 54 57 55 60 60 58 58 58 59 59 59 60 60 61 63 65 67 69 70
72 72 72 71 69 66 67 64 63 63 65 61 60 61 62 61 57 54 55 54 57 55 55 53 52 52 56 53 61 57 56 56 56 57 58 58 59 59 58 59 60 61 63
71 69 69 71 69 65 67 64 64 65 63 63 62 62 59 58 56 57 53 52 54 56 55 54 55 55 53 54 55 55 54 54 55 55 56 57 57 57 56 56 57 58 58
69 70 69 71 69 65 66 65 65 65 64 62 63 62 61 58 58 56 55 55 55 55 56 57 56 58 55 55 56 55 57 57 57 56 56 55 56 57 56 55 55 56 57
64 69 70 72 70 67 65 65 66 64 64 63 60 61 61 61 59 58 57 55 55 55 54 54 56 60 58 56 57 56 57 58 58 57 57 56 55 55 56 57 56 55 55
68 70 69 71 70 68 66 67 63 64 63 64 63 62 61 60 61 60 57 58 55 53 53 54 53 57 55 57 57 58 59 60 61 59 57 56 56 57 57 56 56 56 57
66 68 70 68 69 67 67 67 64 64 63 61 61 61 62 61 60 59 55 56 57 56 51 54 55 58 59 58 57 58 59 59 59 60 58 57 57 57 58 58 57 57 57
68 69 68 69 69 67 67 66 63 63 63 62 61 61 60 62 60 59 61 58 55 54 54 55 55 57 57 58 59 59 60 60 60 60 59 59 59 59 58 57 57 57 57
70 68 69 69 69 66 67 66 64 60 64 64 64 63 60 61 61 61 62 60 60 59 58 56 58 58 58 60 60 60 60 58 56 55 56 58 58 58 58 57 56 56 56
71 71 70 69 67 65 66 65 65 63 63 61 61 61 61 61 61 62 61 61 60 60 59 58 57 58 57 57 56 58 58 61 60 58 56 56 56 56 56 56 55 55 54
72 71 70 69 67 65 65 65 65 64 63 62 62 62 61 61 61 62 60 61 62 61 60 60 60 58 57 56 59 57 55 57 58 57 55 54 53 56 56 55 55 55 54
73 73 70 69 67 64 64 64 64 64 63 63 63 62 62 62 62 64 63 62 62 61 59 58 57 57 55 55 55 56 57 57 56 57 57 54 53 54 54 54 56 56 55
73 72 69 67 65 63 62 62 65 64 64 63 62 62 63 63 62 62 61 61 62 59 58 58 58 57 56 57 58 57 57 55 54 56 55 53 54 54 53 52 52 54 54
73 70 67 65 64 63 59 60 63 63 62 62 63 62 61 62 62 62 61 61 61 60 59 57 57 58 58 58 58 57 57 56 55 54 54 51 52 53 54 53 54 54 54
71 70 67 64 62 63 60 60 60 62 62 62 62 61 61 62 63 63 62 63 61 62 62 62 61 59 61 61 58 56 54 54 54 54 54 52 49 48 50 52 49 46 47
70 69 67 63 63 63 60 59 59 60 61 61 61 61 62 64 64 61 60 60 59 61 61 60 60 60 59 53 53 54 52 51 49 49 51 48 48 45 43 43 44 50 53
70 70 67 65 64 64 61 59 60 60 60 62 61 62 61 62 63 60 60 61 60 60 60 59 58 55 54 54 53 54 53 51 51 50 49 45 43 40 37 44 52 54 54

GFSMA_sfc_30mbdewp_009.txt.gz
Dewpoint
69 69 69 69 71 70 69 69 70 68 68 67 66 62 60 59 59 64 69 68 69 70 71 71 70 66 71 71 71 71 70 69 70 70 70 70 70 69 70 70 70 70 69
70 69 70 68 69 70 71 69 69 67 66 65 66 61 59 61 62 62 66 69 69 68 69 71 71 67 67 72 71 71 71 70 69 69 70 71 70 70 70 70 69 69 69
69 71 70 69 70 70 70 68 68 65 63 64 61 59 61 60 60 59 61 63 69 69 67 70 71 71 70 71 71 71 71 72 71 70 70 70 71 71 71 71 71 70 69
72 71 69 70 69 69 69 69 68 66 66 62 59 61 59 61 59 59 62 60 67 68 69 68 69 70 71 70 70 71 72 72 71 71 71 71 71 71 72 72 72 71 71
71 69 70 69 68 70 69 66 66 66 60 58 58 59 60 58 59 57 59 60 61 66 69 68 68 68 68 69 70 70 69 71 72 72 72 72 71 71 71 71 72 72 72
70 70 70 69 70 69 66 66 65 63 61 61 60 55 60 58 59 57 58 57 60 67 68 68 68 68 69 70 70 70 70 70 70 70 70 71 71 71 71 72 71 71 71
71 70 70 70 70 69 67 66 64 60 60 63 57 59 61 59 59 57 53 52 58 61 65 66 67 69 69 69 71 71 70 69 70 69 69 70 71 71 71 71 71 71 72
71 71 70 70 69 69 67 64 62 61 62 62 56 59 58 60 60 56 51 52 56 57 58 63 64 68 69 68 68 67 67 68 69 70 70 70 70 70 70 70 70 70 71
72 70 71 70 69 68 67 63 62 61 58 63 60 59 58 57 59 60 53 53 52 53 57 59 59 58 67 67 64 61 60 61 62 64 64 65 65 66 67 68 70 71 71
72 70 70 71 69 66 65 64 64 62 63 59 63 60 59 57 57 56 58 54 53 51 52 53 58 56 58 65 63 59 57 57 58 59 59 59 60 60 61 62 64 65 67
72 72 72 72 68 63 65 65 62 60 64 61 61 62 61 59 57 55 55 56 56 54 53 51 51 55 55 59 58 57 56 54 53 55 57 58 58 58 58 58 59 60 61
70 72 71 70 67 65 64 63 63 62 63 63 61 61 59 57 56 57 54 54 55 56 56 54 52 52 56 56 60 57 56 55 54 53 53 55 57 57 56 56 56 57 58
71 71 71 69 66 65 65 64 63 64 63 62 58 59 62 58 57 56 54 54 52 55 55 57 56 55 54 53 57 58 57 56 57 56 54 54 54 55 56 55 55 55 55
70 70 70 69 67 65 67 66 64 64 63 62 62 60 60 61 60 57 55 53 53 55 54 52 57 59 56 55 55 59 57 57 58 58 57 56 56 54 55 57 56 56 55
69 69 71 70 68 66 66 65 64 62 65 63 60 60 60 59 60 60 59 56 53 51 51 53 50 58 59 59 57 59 56 57 58 59 59 57 57 57 58 58 58 57 57
69 68 70 71 70 66 64 65 63 64 63 63 63 62 60 60 60 61 58 58 56 53 52 54 56 56 58 58 57 60 58 60 59 60 61 59 58 57 58 59 59 58 57
69 69 69 71 69 67 66 66 63 62 64 60 61 59 61 62 60 58 61 59 57 58 54 56 56 57 56 55 56 58 59 60 60 59 60 60 59 59 59 59 59 59 59
69 70 70 68 69 67 67 66 63 63 61 62 60 60 59 59 61 60 61 60 60 61 59 56 58 58 58 58 57 59 59 61 59 59 59 59 59 59 58 60 60 59 58
70 69 68 68 68 68 66 66 64 62 63 63 62 62 61 60 60 61 61 61 61 60 60 58 57 59 59 59 58 57 58 58 59 60 58 57 57 57 58 59 57 57 56
71 69 68 68 69 67 66 66 65 63 63 64 63 63 62 60 60 62 61 60 60 60 60 59 57 58 59 58 58 58 55 57 57 58 58 57 57 56 56 57 58 57 57
72 71 70 70 69 67 66 65 65 64 63 63 63 63 63 63 63 62 61 61 61 58 59 58 57 57 56 56 54 56 57 57 57 57 56 56 54 54 54 55 55 55 55
73 72 71 69 69 66 65 65 65 64 64 64 63 63 61 61 63 62 62 62 62 60 59 58 57 56 56 57 57 57 57 56 54 56 55 52 51 52 51 52 53 53 53
74 73 71 69 68 66 63 64 65 64 63 63 63 63 62 63 63 62 61 60 60 61 61 58 56 55 56 57 58 57 56 56 56 54 52 51 52 52 53 54 51 51 51
73 72 70 68 67 65 62 61 62 64 64 64 64 64 62 60 62 62 62 61 62 62 61 61 60 59 59 59 60 58 56 54 54 54 54 52 52 50 49 47 45 43 43
72 70 69 67 65 64 62 60 60 63 62 62 63 63 62 60 61 62 61 60 59 59 61 62 62 62 61 60 59 55 52 51 50 50 51 50 50 44 42 39 37 39 46
71 70 68 66 65 64 62 60 60 60 60 60 61 62 61 61 62 61 60 59 58 59 58 56 57 57 55 54 54 53 52 51 51 50 51 45 42 40 35 37 43 45 50

GFSMA_sfc_30mbdewp_015.txt.gz
Dewpoint
69 67 65 69 68 69 69 69 69 69 68 66 65 62 60 65 68 68 68 69 69 69 71 69 69 70 70 70 70 70 70 70 70 70 69 70 68 67 68 68 68 68 68
69 67 65 68 68 69 69 69 69 67 64 64 65 65 60 61 65 67 68 68 69 69 71 70 69 68 70 71 70 70 70 69 69 69 69 70 70 69 68 69 69 69 70
69 68 67 68 69 70 70 69 67 65 63 61 58 59 60 61 61 62 65 67 68 68 69 71 70 67 67 71 70 71 71 71 70 70 70 70 70 70 70 69 69 70 69
69 69 69 69 69 69 70 68 67 66 63 59 58 60 60 61 60 60 61 64 66 67 68 67 69 69 69 68 69 71 71 71 71 71 71 70 70 71 71 70 70 70 70
70 70 70 70 69 69 68 67 66 65 59 58 59 60 60 59 59 59 60 62 65 68 68 67 67 68 69 69 68 68 70 71 71 70 70 70 70 70 71 71 71 72 71
71 70 69 69 68 69 68 66 64 64 60 60 61 57 60 59 58 57 62 66 67 68 68 68 67 68 68 69 69 69 69 69 68 69 70 71 70 71 71 71 71 71 71
71 70 69 69 68 68 67 66 64 61 58 62 57 60 60 59 57 54 59 63 65 66 66 67 69 69 69 68 69 70 69 69 69 69 68 68 70 69 69 69 70 70 70
71 70 69 69 69 69 67 66 62 59 60 62 55 58 57 59 56 53 58 61 63 64 64 66 67 68 67 67 68 69 68 69 69 69 69 69 69 69 69 69 69 69 69
70 70 69 69 69 69 68 65 62 58 58 62 60 58 57 55 58 58 53 55 58 60 61 63 66 68 67 65 65 63 62 64 66 66 66 65 65 65 65 66 67 67 68
70 70 70 70 69 69 67 64 62 60 59 59 62 60 59 60 56 53 56 54 54 54 57 58 59 61 67 65 63 60 58 57 58 59 59 59 59 59 60 60 61 62 62
71 71 70 70 69 68 67 64 62 61 60 58 60 59 59 58 57 56 51 52 55 54 53 52 58 57 64 65 63 60 59 56 56 56 55 55 56 57 57 57 58 58 59
71 71 71 70 68 67 66 64 63 61 63 60 61 61 58 55 55 54 55 54 52 53 55 54 53 56 57 62 64 62 61 57 55 55 56 56 55 55 55 55 55 56 56
70 71 70 70 69 66 65 64 62 60 63 62 60 60 60 57 57 56 53 53 52 54 55 56 57 54 53 56 59 63 61 60 56 55 55 55 56 56 56 55 55 55 57
70 71 71 70 70 66 65 64 62 61 62 62 60 59 61 58 57 56 52 53 51 53 54 52 55 58 56 55 56 59 62 62 60 57 57 57 57 57 58 58 58 58 58
70 70 71 70 69 67 64 63 62 62 63 61 61 61 60 60 61 58 57 53 50 49 49 52 52 55 58 58 57 57 61 61 60 58 57 57 58 58 58 59 60 59 60
70 70 71 70 69 66 65 63 62 62 63 62 61 61 60 59 59 59 59 59 54 52 50 52 53 55 56 57 58 61 59 60 60 60 60 60 60 60 60 60 60 60 60
69 70 70 70 68 66 65 64 63 62 62 62 63 60 59 60 59 59 59 59 57 55 53 53 56 56 56 57 56 57 58 58 59 59 60 61 61 61 61 62 61 61 61
69 69 69 69 68 67 65 64 63 63 61 60 62 62 61 61 60 60 59 59 58 58 56 54 55 57 57 58 58 58 58 59 59 59 58 59 58 59 60 60 60 60 60
69 69 69 69 68 67 65 64 63 63 62 61 60 61 61 60 59 60 60 59 60 60 58 56 55 58 58 59 58 58 57 57 58 59 58 57 57 57 57 56 55 55 56
69 68 69 69 69 68 67 65 65 63 62 62 62 61 60 60 59 59 58 59 59 60 60 59 58 58 58 58 58 56 55 56 56 57 57 57 57 56 54 51 52 52 53
70 69 68 68 69 69 68 66 65 64 63 62 62 62 62 61 61 60 60 60 60 60 60 59 59 58 56 56 54 55 55 55 56 57 56 56 55 52 49 52 53 53 53
70 69 68 68 68 69 68 67 67 66 64 64 62 63 63 63 63 62 62 62 60 59 59 59 58 56 56 55 56 55 55 55 54 56 55 54 54 50 49 51 52 54 54
71 69 68 68 68 68 67 66 66 66 65 64 64 63 62 63 63 63 63 63 62 62 61 60 58 57 56 56 56 55 56 56 55 56 55 54 51 50 51 52 52 52 47
71 70 69 68 68 68 66 66 66 66 65 65 64 64 62 62 63 63 62 61 60 61 61 61 60 59 59 58 58 58 58 57 55 55 54 51 51 51 51 51 51 48 46
71 71 70 69 69 69 66 65 65 65 66 65 65 64 63 62 63 62 61 60 60 59 62 61 61 60 60 60 60 58 56 55 53 52 52 51 50 49 47 44 42 42 41
72 71 71 70 70 69 66 65 66 66 65 65 63 63 63 64 63 62 62 59 58 58 58 58 56 53 52 52 54 55 55 53 51 50 51 49 47 43 36 40 38 36 36

GFSMA_sfc_30mbdewp_021.txt.gz
Dewpoint
71 71 69 69 69 69 69 70 70 70 68 66 66 62 61 63 65 62 64 68 68 68 67 69 69 70 70 70 70 69 68 67 70 69 70 69 69 69 68 68 68 69 68
70 70 70 68 69 70 70 71 71 68 66 65 66 65 61 59 64 64 62 65 68 68 68 69 68 70 70 70 70 70 70 70 70 70 70 70 70 68 68 68 69 69 69
71 72 71 68 69 71 72 71 70 68 63 60 61 62 61 62 60 63 63 63 65 67 68 68 69 69 69 70 70 70 70 70 70 70 70 69 70 70 70 69 68 69 70
72 72 71 69 70 71 71 70 70 68 65 60 61 63 62 61 61 61 62 63 64 63 67 68 68 69 67 68 70 70 70 70 70 70 70 70 71 71 70 70 70 70 70
71 71 71 70 72 70 70 70 69 68 63 60 59 61 61 61 60 60 63 64 65 65 65 67 68 67 67 68 69 69 69 69 70 70 70 70 71 71 71 71 71 71 71
71 72 71 71 71 70 69 69 69 66 62 62 59 61 61 60 60 63 62 63 66 66 66 67 66 66 68 68 68 68 68 69 69 70 70 70 70 70 70 70 70 70 70
72 72 70 71 71 69 70 70 68 65 61 64 60 60 61 59 59 61 63 61 61 62 65 66 66 67 67 68 68 69 69 68 68 68 68 68 68 68 69 69 68 68 69
72 72 71 71 71 69 70 70 68 63 60 63 58 58 55 57 57 57 61 60 62 58 59 63 67 68 66 64 66 66 68 69 69 69 69 69 69 69 69 69 68 68 68
72 73 72 71 71 71 69 70 68 65 60 63 63 57 54 52 57 57 59 59 61 58 58 61 63 66 65 62 59 58 60 64 64 65 65 65 65 65 65 65 65 65 65
72 72 72 72 72 70 70 70 69 66 63 59 62 62 63 62 54 54 56 57 58 56 59 58 59 61 63 60 62 58 55 55 57 56 56 56 57 57 58 59 60 60 60
72 72 72 72 72 71 71 71 69 67 64 60 59 60 61 61 62 57 54 53 56 55 56 57 56 57 60 61 59 60 59 55 54 54 54 54 54 55 55 56 56 57 57
69 71 72 72 72 71 71 71 70 68 65 62 62 62 58 56 56 58 57 57 54 54 55 55 56 56 58 58 60 62 62 61 57 55 55 56 56 56 57 56 55 55 56
68 70 72 72 71 72 71 71 70 68 66 63 64 61 62 60 59 57 56 57 56 56 56 58 57 57 57 59 58 62 64 64 61 59 56 56 57 58 58 59 59 59 59
68 70 72 72 72 72 71 70 69 68 66 65 65 63 61 62 60 59 56 55 54 55 56 56 57 57 59 59 58 60 58 61 62 61 61 58 57 58 59 59 60 60 60
68 70 71 72 72 72 71 70 68 68 66 65 64 65 62 62 61 59 58 57 54 50 51 54 53 59 59 60 60 59 60 61 61 60 61 61 60 59 59 60 60 61 61
70 69 70 71 72 72 72 71 69 68 66 65 63 64 63 61 62 61 59 58 56 54 51 54 54 57 59 59 60 61 61 60 60 60 60 60 60 60 60 61 62 62 63
71 70 71 71 71 71 71 71 70 68 66 65 64 64 64 64 61 61 61 60 60 58 54 55 57 59 61 60 58 61 60 60 58 60 59 60 60 61 61 61 61 62 62
71 72 71 71 71 71 71 71 70 68 67 66 65 64 63 63 63 62 61 61 59 60 57 58 58 59 61 62 62 63 61 57 59 56 59 59 60 59 58 58 57 57 56
71 70 71 71 71 71 71 71 70 69 68 67 66 64 63 63 63 60 61 60 59 61 61 58 57 59 60 60 61 62 62 60 59 57 58 57 58 58 58 56 54 52 50
71 71 72 71 71 71 71 70 70 70 69 68 67 65 64 63 62 63 63 63 61 61 61 60 58 58 60 60 61 58 57 58 57 55 55 56 58 58 55 53 50 51 53
71 71 71 71 71 70 70 70 70 70 69 68 67 66 65 65 64 64 62 63 62 62 60 59 58 58 57 58 58 56 57 56 57 58 56 56 56 55 55 56 53 51 52
71 71 71 71 71 70 69 69 70 70 69 69 68 67 66 65 63 63 63 63 63 62 61 59 58 57 59 61 59 58 56 55 53 59 57 53 57 55 55 55 54 52 52
71 71 71 71 71 71 68 68 68 69 69 69 68 68 67 66 64 64 62 61 61 62 62 63 61 60 59 61 61 60 59 57 56 56 59 54 54 54 53 51 53 52 51
71 71 71 71 71 71 68 67 67 69 69 69 69 68 67 66 66 65 65 63 63 63 63 62 63 63 62 63 62 61 61 60 59 58 59 53 51 51 51 48 47 47 45
71 71 71 71 71 71 68 66 66 68 69 69 69 69 68 67 67 64 65 64 64 64 65 64 64 63 61 61 61 60 58 57 53 51 55 52 48 48 46 45 41 39 37
71 70 71 71 71 71 68 66 66 68 68 69 69 69 66 68 65 63 64 65 63 63 63 62 61 59 59 58 60 60 54 50 47 47 51 47 44 43 37 36 38 36 36

GFSMA_sfc_30mbdewp_024.txt.gz
Dewpoint
69 68 68 67 67 65 65 67 65 64 67 65 64 58 54 56 56 55 60 68 68 67 67 69 70 70 69 70 70 69 67 67 70 69 69 69 69 69 68 68 68 69 68
69 67 68 66 66 66 67 66 66 67 64 62 62 58 55 56 57 57 57 63 68 68 67 70 68 70 70 70 70 70 70 69 69 70 70 70 69 68 68 67 69 69 69
71 71 68 67 65 69 67 67 66 66 62 59 62 59 56 56 55 57 58 59 64 67 68 69 69 69 70 70 70 70 70 70 70 70 70 70 70 70 70 69 68 68 69
72 71 69 67 67 69 67 66 65 64 62 59 58 58 56 55 56 56 56 58 59 62 66 67 68 69 69 68 69 70 70 70 70 70 70 70 70 70 71 70 70 70 70
71 71 70 68 70 68 67 66 67 65 61 58 55 57 56 56 54 57 58 58 59 59 61 66 67 67 68 68 68 69 70 69 70 69 70 71 71 71 71 71 71 71 71
70 72 69 68 68 68 67 69 67 65 61 54 52 56 57 56 55 56 56 56 60 60 61 63 65 66 67 68 68 68 68 69 70 70 70 70 70 70 71 70 70 70 70
71 72 70 68 68 68 68 68 68 66 60 58 56 55 57 58 56 56 55 53 55 56 59 61 62 65 65 68 69 69 68 68 68 68 68 68 69 69 69 69 68 68 69
72 72 72 70 68 68 69 69 68 62 61 57 55 54 53 54 54 55 56 55 54 52 54 58 62 64 62 64 64 67 68 69 69 69 69 69 69 69 69 68 68 69 69
71 73 71 70 70 69 69 70 69 66 59 58 61 56 51 50 53 56 57 55 57 54 56 58 58 61 60 56 59 57 62 63 63 63 64 63 63 64 64 63 64 64 65
71 71 72 71 71 69 69 70 69 67 67 58 58 58 61 60 52 53 56 56 56 55 56 54 56 57 58 55 57 55 56 57 57 55 55 55 56 57 57 58 59 59 60
71 70 71 71 72 72 70 71 70 70 66 61 54 58 59 58 58 54 53 54 56 55 55 56 54 55 58 57 57 56 57 55 55 55 54 54 54 55 55 55 56 56 57
69 70 70 70 70 71 71 71 71 70 68 64 56 57 56 54 54 54 52 54 53 54 55 55 56 55 55 56 58 60 60 60 56 55 55 56 56 56 57 57 56 56 57
65 68 71 71 71 72 71 72 72 70 70 66 65 56 57 57 56 54 51 51 51 53 54 55 55 55 54 56 56 57 62 63 62 60 57 57 58 59 59 59 60 60 60
65 66 69 71 71 71 72 72 71 70 69 68 66 61 55 58 59 57 54 52 52 52 53 55 54 54 54 56 59 59 58 62 62 61 60 60 59 58 59 60 61 61 61
66 67 69 71 71 71 71 72 71 70 69 69 66 64 60 55 58 57 56 54 52 49 49 55 51 55 55 55 57 58 57 60 61 60 60 60 61 61 61 61 61 62 63
70 67 70 70 70 71 71 72 70 70 70 68 65 63 63 55 58 58 56 54 53 51 50 51 52 54 55 55 59 58 57 60 60 59 60 60 60 61 61 61 62 63 63
71 71 71 70 70 70 71 72 71 68 70 69 66 64 64 60 56 56 57 55 54 54 52 51 53 56 60 61 57 58 59 59 58 59 59 59 59 60 60 61 61 60 60
72 72 71 71 70 70 71 72 71 68 70 69 68 66 65 63 63 60 58 58 57 56 54 55 54 55 61 60 62 62 60 57 56 59 59 58 58 59 60 59 58 57 56
73 71 72 72 71 70 71 71 72 71 69 70 69 68 66 63 63 58 59 56 58 58 59 55 55 57 56 59 61 63 61 60 59 59 56 57 58 58 57 57 56 55 53
73 73 73 73 72 71 70 70 71 71 70 70 70 69 67 65 63 63 61 61 58 57 58 57 54 53 56 57 58 55 57 60 58 56 55 54 57 58 58 58 55 52 50
73 73 73 73 73 71 69 71 71 70 71 70 70 70 69 67 65 64 61 62 62 61 55 56 55 54 54 55 56 55 54 54 55 58 57 55 55 55 57 56 55 56 54
73 74 73 73 72 70 68 68 71 70 71 71 70 70 69 68 66 64 63 62 63 62 60 55 54 54 56 57 57 56 54 53 52 58 58 55 54 53 54 53 53 52 52
73 73 73 73 73 73 67 66 68 70 71 71 71 70 70 68 67 67 64 62 62 63 63 62 61 59 58 60 61 60 58 57 56 57 59 55 54 51 51 50 53 48 48
73 73 73 73 73 73 70 66 67 70 71 70 70 70 70 69 68 67 67 64 62 62 63 61 61 62 63 62 63 62 61 59 59 59 59 55 52 48 49 49 48 46 42
73 73 73 73 73 73 70 67 66 69 69 71 71 71 71 71 70 66 67 67 65 65 63 63 63 63 62 63 62 59 58 56 54 53 57 52 48 46 47 45 43 39 35
72 71 72 73 73 73 71 67 67 68 67 68 70 72 69 71 69 66 67 67 67 65 64 64 64 63 62 61 60 61 57 55 51 46 52 48 43 42 42 40 37 36 36

GFSMA_sfc_30mbdewp_030.txt.gz
Dewpoint
71 70 70 67 70 70 65 70 69 70 69 62 65 61 57 57 64 65 68 71 69 69 68 70 70 70 70 70 68 66 69 70 69 69 69 69 69 69 68 67 67 68 68
70 70 69 68 71 70 70 69 66 63 66 66 66 59 58 56 60 65 66 70 69 68 69 69 71 70 70 70 70 70 67 66 68 70 69 70 69 68 68 67 67 68 69
71 69 70 69 70 71 69 70 68 65 65 64 59 60 57 58 56 62 64 66 68 69 69 70 70 71 70 70 71 70 70 70 69 70 70 70 70 70 70 70 69 68 68
71 72 69 69 68 71 69 68 68 68 66 64 59 59 59 56 55 59 64 65 66 66 69 71 70 71 70 70 70 70 70 71 71 71 71 71 71 70 70 71 70 71 70
71 72 70 71 71 68 70 67 67 68 61 57 59 56 59 57 56 57 57 65 66 65 66 70 70 70 69 68 69 69 70 71 71 71 71 71 70 71 71 70 71 71 71
72 72 71 70 71 68 70 69 68 63 61 56 55 58 59 56 60 58 58 62 67 65 66 68 70 69 69 68 68 68 68 69 70 70 70 70 71 71 70 70 70 70 70
72 73 72 69 70 69 70 68 67 65 59 58 57 58 57 56 56 59 56 55 59 63 65 67 68 67 68 69 69 68 68 68 68 68 69 69 69 69 68 69 69 69 69
72 72 72 70 70 70 70 70 69 66 59 57 62 59 57 57 55 56 57 54 57 56 58 68 67 68 68 68 70 70 70 70 70 69 69 69 70 70 69 69 68 68 69
72 72 72 72 70 71 69 71 70 68 64 58 62 62 57 55 57 57 55 57 56 57 58 60 65 68 67 60 63 64 66 66 66 65 64 64 65 65 64 64 63 63 63
72 73 73 73 72 71 70 70 71 69 67 62 58 59 62 63 59 56 58 58 59 56 59 59 60 59 64 63 60 59 59 59 58 57 56 57 59 59 59 58 59 59 59
72 72 73 73 73 72 71 71 71 70 71 64 59 58 59 61 60 60 57 59 58 60 58 57 60 60 61 59 57 57 56 57 57 56 56 56 56 56 55 55 55 55 56
72 72 73 73 73 72 72 72 72 72 70 70 65 64 59 58 58 58 59 59 58 58 59 57 57 60 61 62 57 56 57 56 57 57 57 56 57 57 57 57 57 58 58
70 71 73 74 73 73 73 72 73 73 72 70 68 65 62 62 61 60 57 58 57 58 57 59 60 58 59 63 60 57 58 56 56 56 56 57 58 59 60 60 60 61 61
67 72 72 73 73 74 73 74 74 73 73 72 71 67 65 63 61 59 58 58 55 56 58 56 59 60 59 62 59 59 61 58 57 57 57 57 58 59 60 60 61 62 62
67 70 73 72 73 73 74 73 72 74 72 72 71 71 67 64 63 62 60 58 57 56 57 59 57 57 62 61 63 62 62 60 59 60 60 60 60 61 62 62 62 62 62
69 71 73 73 73 73 74 74 73 73 72 73 71 70 69 63 62 62 60 59 58 56 55 58 58 58 57 62 62 62 61 62 61 61 60 60 59 59 62 62 62 63 63
73 70 74 74 74 73 74 74 73 72 73 72 72 71 69 66 63 62 60 60 59 58 54 57 61 62 59 61 59 60 63 62 61 60 60 59 58 59 60 60 61 62 62
72 74 73 73 73 73 73 73 73 71 72 73 72 71 70 68 66 66 66 59 59 60 58 57 61 63 61 62 65 64 62 60 62 62 61 58 58 58 58 57 59 60 59
74 72 74 73 73 73 73 74 74 73 71 73 73 72 70 69 68 65 64 64 61 63 64 59 60 63 64 66 64 65 66 65 64 62 60 58 58 58 56 57 58 58 57
73 74 73 74 74 74 74 73 73 73 73 72 73 73 72 70 69 68 65 62 64 61 61 62 60 59 62 64 66 63 64 66 64 62 59 58 59 58 55 56 57 57 57
73 74 73 74 74 74 74 73 73 73 74 73 72 73 73 72 70 70 67 67 63 66 63 61 60 60 59 61 63 63 62 62 64 64 62 60 58 59 58 58 58 59 58
74 74 74 74 74 74 73 72 73 73 73 73 73 72 73 72 71 69 68 66 67 63 62 60 60 59 59 59 63 61 61 60 58 65 63 60 61 62 59 60 60 59 58
74 74 74 74 74 74 72 71 71 72 72 73 73 73 73 72 72 70 67 66 65 65 64 62 60 59 61 63 62 63 62 62 60 62 61 59 61 60 58 58 58 58 58
75 74 75 75 75 74 73 70 70 71 72 72 73 73 73 72 72 71 69 67 66 65 65 65 65 64 66 66 66 66 64 64 64 63 63 58 60 59 57 55 55 55 51
75 75 75 75 75 75 73 71 68 70 71 71 72 73 73 73 73 70 70 68 66 66 65 65 65 67 66 64 68 65 64 63 61 61 62 60 60 59 51 56 55 51 47
75 75 75 75 75 75 75 71 69 72 70 70 71 72 72 73 72 69 70 70 68 67 66 64 65 63 63 64 64 66 64 61 60 59 61 60 58 53 48 49 55 48 45

GFSMA_sfc_30mbdewp_033.txt.gz
Dewpoint
69 70 71 70 69 69 65 63 69 66 67 64 63 60 64 64 65 67 70 71 71 71 71 70 71 70 70 68 68 70 69 69 69 69 69 69 69 69 68 67 67 69 69
70 70 70 69 69 69 65 68 68 62 64 66 64 58 61 65 65 66 70 71 70 71 70 71 70 70 70 71 70 67 66 69 70 69 69 70 69 69 69 68 67 68 69
70 69 68 70 70 69 69 70 68 65 62 64 64 59 58 64 65 65 67 69 69 69 71 71 72 71 70 70 70 70 70 67 68 69 70 70 70 70 70 70 70 69 69
70 70 70 69 69 70 71 70 68 68 66 65 61 60 57 56 64 64 65 67 68 67 71 71 71 72 70 70 70 71 71 71 71 71 71 71 71 70 70 71 71 71 71
71 71 70 69 71 68 69 69 68 68 65 63 60 61 59 57 58 64 64 65 66 68 70 71 70 70 70 70 70 70 70 71 71 71 71 71 71 71 71 71 70 71 71
71 71 71 70 69 68 69 69 66 62 58 58 58 57 57 58 58 60 65 65 65 66 69 70 70 70 69 69 69 69 69 70 70 71 71 71 71 71 71 70 70 70 70
71 72 72 71 71 68 70 68 66 65 57 61 58 57 56 56 58 60 63 65 65 65 67 68 68 69 69 69 68 68 68 68 69 70 70 70 69 69 69 69 69 69 69
72 72 71 70 71 70 70 68 68 66 62 59 62 59 54 55 58 57 57 61 64 64 66 67 67 68 69 68 70 70 70 70 70 70 70 70 70 70 69 68 68 68 68
72 71 72 71 71 71 70 70 70 67 61 62 61 62 55 54 57 58 56 55 60 61 65 68 68 67 68 68 69 68 69 69 69 68 67 67 67 67 65 64 63 62 62
72 72 72 71 71 70 68 70 70 68 66 57 60 61 63 63 56 54 58 57 59 57 62 65 66 67 64 62 63 63 62 62 61 59 58 58 60 60 59 59 59 59 59
72 72 72 71 71 72 70 68 70 70 70 65 58 59 60 60 62 60 55 56 59 59 60 59 60 65 60 61 60 59 59 58 58 58 58 58 58 58 57 57 56 56 57
70 72 73 72 72 72 71 69 71 71 68 70 65 63 57 56 57 57 58 59 56 59 58 59 59 60 61 60 57 57 58 57 57 57 57 58 58 58 58 58 57 58 59
70 71 73 72 73 72 72 71 71 72 70 69 69 63 64 59 61 59 60 59 58 59 58 59 60 60 63 57 55 59 58 57 57 57 58 58 58 59 60 60 61 61 62
71 71 72 73 72 72 72 72 71 72 72 70 70 67 63 64 64 59 57 58 55 57 58 55 60 59 62 60 58 59 59 58 57 57 56 56 57 58 59 60 61 61 62
68 71 72 74 73 72 72 73 72 71 73 71 69 70 66 63 64 63 59 59 56 55 56 57 57 60 61 63 61 59 57 58 57 57 56 57 58 59 60 61 61 62 62
69 69 72 72 73 73 73 72 73 73 72 72 71 69 69 67 63 63 61 58 59 56 53 61 58 60 62 61 61 59 58 58 59 59 58 59 59 60 60 60 61 62 62
70 69 72 72 72 72 74 73 72 73 73 72 72 70 69 68 64 62 63 61 58 57 53 55 59 60 61 61 62 62 62 63 60 60 59 60 60 60 60 61 61 61 62
70 73 74 73 73 73 73 74 73 72 71 72 72 71 70 69 66 64 65 59 58 59 55 53 62 61 59 60 59 61 61 61 61 61 61 60 60 58 59 59 59 60 61
72 70 74 73 73 73 73 73 73 73 72 72 72 72 71 69 67 65 64 64 61 59 60 56 60 61 60 63 62 61 61 62 62 63 62 61 61 57 58 58 57 58 59
71 74 71 73 73 73 73 73 73 73 73 71 73 73 72 70 68 67 65 63 64 61 62 60 58 60 62 63 62 62 63 65 63 64 62 61 60 58 58 57 57 57 58
72 72 73 72 74 73 73 73 73 73 73 73 71 73 73 71 70 68 67 64 62 63 61 60 60 59 58 63 63 63 60 61 64 65 62 59 59 59 59 59 59 59 58
71 72 72 72 73 73 73 72 73 72 73 72 72 72 73 72 71 69 68 66 64 59 63 60 59 59 59 59 62 62 62 62 61 64 63 62 59 59 58 59 59 58 58
73 72 71 73 72 73 72 71 72 72 72 72 72 72 72 72 72 71 68 68 65 64 60 62 60 59 58 60 61 62 62 61 60 60 63 60 63 60 62 61 61 59 59
73 73 73 72 73 73 72 71 70 72 72 72 73 73 72 72 72 72 71 68 68 66 65 62 62 61 61 61 62 62 62 62 63 63 61 57 60 58 60 56 59 59 58
73 73 74 74 73 74 73 71 70 71 72 72 72 73 73 72 72 70 71 70 68 68 66 65 63 62 63 66 67 66 63 61 61 61 63 59 59 58 57 54 56 56 55
73 74 73 74 74 74 74 71 70 72 71 71 72 72 71 72 72 70 71 71 69 68 67 66 64 64 64 64 66 65 64 62 61 60 62 59 59 59 53 54 54 55 52

GFSMA_sfc_30mbdewp_036.txt.gz
Dewpoint
69 70 70 68 69 69 67 64 68 68 66 64 63 68 67 65 66 69 71 72 72 71 70 70 69 68 67 69 69 69 69 70 70 69 69 69 69 69 68 67 67 69 69
69 70 70 69 69 69 68 65 67 63 63 64 64 66 65 65 66 68 69 71 71 72 71 70 71 70 70 68 67 68 70 70 69 69 70 70 69 70 69 68 67 68 69
70 70 70 68 68 68 68 69 68 65 63 63 63 61 64 64 65 67 69 70 71 71 71 72 70 70 70 71 70 69 67 67 68 69 70 70 70 70 69 69 70 70 69
71 70 69 69 70 70 71 70 68 66 65 65 61 60 63 65 65 65 68 69 69 69 72 72 72 71 71 70 71 70 71 70 70 70 71 71 71 70 70 70 71 71 70
71 70 70 69 69 70 69 68 68 69 65 65 64 60 59 62 64 64 65 66 67 68 71 71 71 70 70 70 70 71 71 71 71 71 71 71 71 71 71 71 70 70 70
71 71 69 70 70 68 69 69 65 62 57 59 59 59 58 59 64 64 64 65 66 68 69 70 70 69 70 70 70 70 70 71 71 71 71 71 71 70 70 70 70 70 70
71 71 71 70 69 67 69 67 66 64 57 60 57 56 57 59 59 62 65 65 65 66 68 69 69 70 69 69 69 68 68 68 69 69 69 71 70 69 69 69 69 69 68
71 71 71 70 70 68 69 68 68 65 59 60 59 56 53 54 58 60 64 65 65 65 66 67 67 68 69 69 69 70 70 70 70 70 70 70 70 70 69 68 67 67 67
72 72 70 70 70 70 69 69 68 65 57 62 62 58 54 52 56 58 58 62 64 64 65 66 67 67 68 68 70 70 70 70 69 69 69 68 68 67 66 64 63 62 62
72 72 71 71 70 71 70 69 70 67 63 57 60 63 62 61 53 52 58 58 62 61 64 67 67 67 67 67 67 66 68 68 66 63 61 60 61 60 59 59 59 60 60
72 71 71 71 70 71 69 69 70 69 67 61 56 60 60 61 61 57 54 56 60 58 62 66 66 67 66 63 61 62 63 61 60 59 59 59 59 58 57 57 57 56 58
70 72 71 71 70 71 70 68 69 70 69 67 61 59 57 56 57 58 57 57 55 57 60 62 63 66 64 60 60 59 60 59 58 58 58 59 59 58 58 58 58 58 59
69 71 72 71 71 71 71 70 69 71 69 69 66 64 60 57 60 58 58 59 57 58 58 59 60 62 64 60 61 59 60 58 57 57 57 58 59 59 60 60 61 62 62
69 69 72 72 72 72 71 70 70 70 71 69 68 66 64 63 64 61 57 58 56 57 58 56 60 60 62 60 59 60 59 58 57 57 56 57 58 59 59 60 60 61 61
70 70 71 72 72 72 71 71 70 70 72 71 68 69 66 63 63 64 60 59 55 54 56 57 56 60 61 62 58 61 57 59 58 58 57 57 57 57 58 59 60 61 62
69 71 71 72 72 72 72 72 72 71 71 71 70 68 69 67 64 63 63 59 58 55 53 56 58 60 60 63 61 61 57 57 58 57 57 56 57 57 58 59 60 61 62
69 69 71 71 72 72 72 71 72 72 71 70 72 70 68 68 65 63 62 62 59 57 53 53 60 59 61 61 61 63 58 58 57 59 57 57 58 59 59 59 59 61 61
70 69 71 71 72 72 72 71 71 71 73 71 71 71 70 69 67 65 62 60 61 59 55 53 54 61 59 61 60 62 60 60 60 59 59 59 59 60 60 59 58 60 59
69 71 72 71 71 72 72 73 72 71 71 72 72 71 71 70 69 67 64 61 62 60 59 55 53 61 60 61 60 61 61 61 62 62 61 61 60 60 60 58 57 59 58
67 69 72 73 72 72 72 72 72 72 72 72 72 72 71 70 69 68 67 65 63 62 60 59 57 59 61 62 61 58 59 62 60 62 62 62 62 61 61 59 57 58 57
72 68 69 71 73 73 73 72 72 72 72 72 72 73 72 72 71 70 68 66 64 62 62 61 59 58 60 60 59 60 59 59 62 64 63 62 61 61 61 61 59 59 58
69 71 71 72 71 72 72 72 72 72 72 72 71 71 72 72 71 70 68 68 66 64 62 61 60 59 57 59 61 59 60 59 58 63 63 62 61 60 59 59 59 59 59
71 69 69 71 71 72 71 71 71 72 72 72 71 71 72 71 72 72 69 67 67 65 64 62 60 59 58 58 58 61 61 60 59 61 63 60 62 60 60 59 59 59 59
73 72 71 70 72 71 71 70 70 72 72 72 72 72 71 72 71 72 72 69 68 67 65 63 61 60 60 59 60 59 60 61 62 61 63 58 61 61 61 60 60 60 59
72 72 73 72 71 71 71 70 69 71 72 72 72 72 72 72 72 70 71 71 70 69 69 65 65 62 61 60 60 60 60 61 60 61 62 59 59 59 59 58 57 58 59
72 72 72 73 73 73 71 70 70 71 71 71 72 73 71 72 72 70 71 71 70 71 70 69 66 64 62 61 61 60 60 60 59 60 62 58 59 58 56 56 56 57 58